Location: Budapest
(47.4979°N, 19.0402°E)
Time: 14:00:55
(UTC+02:00)

ISS - Pass Details

Date: 09 October 2017
Orbit: 401 x 408 km, 51.6° (Epoch: 23 October)

Event Time Altitude Azimuth Distance (km) Brightness Sun altitude
Rises 18:46:08 0° 289° (WNW) 2,326 1.6 -7.4°
Reaches altitude 10° 18:48:17 10° 296° (WNW) 1,466 0.1 -7.7°
Maximum altitude 18:51:27 44° 11° (N) 577 -3.1 -8.3°
Enters shadow 18:54:17 12° 83° (E) 1,340 -1.9 -8.7°
